| time (UTC) | temp C | wind direction | speed KPH | gust KPH | rain 1hr cm | rain 24hr cm | rain mn cm | humidity % | barometer mb |
| 20260507200600 | 25 | 29 | 3.2 | 11.3 | 0.00 | 0.00 | 0.00 | 79 | 1014.6 |
| 20260507200018 | 25 | 59 | 3.2 | 11.3 | 0.00 | 0.00 | 0.00 | 79 | 1014.6 |
| 20260507195516 | 25 | 31 | 1.6 | 11.3 | 0.00 | 0.00 | 0.00 | 81 | 1014.6 |
| 20260507195012 | 24 | 74 | 3.2 | 11.3 | 0.00 | 0.00 | 0.00 | 81 | 1014.6 |
| 20260507194510 | 24 | 49 | 4.8 | 8.0 | 0.00 | 0.00 | 0.00 | 80 | 1014.6 |
| 20260507194007 | 24 | 299 | 3.2 | 8.0 | 0.00 | 0.00 | 0.00 | 80 | 1014.6 |
| 20260507193504 | 24 | 43 | 4.8 | 8.0 | 0.00 | 0.00 | 0.00 | 81 | 1014.9 |
| 20260507192946 | 24 | 120 | 1.6 | 8.0 | 0.00 | 0.00 | 0.00 | 81 | 1014.9 |
| 20260507192443 | 23 | 299 | 3.2 | 8.0 | 0.00 | 0.00 | 0.00 | 82 | 1014.9 |
| 20260507191940 | 23 | 30 | 3.2 | 11.3 | 0.00 | 0.00 | 0.00 | 81 | 1014.9 |
| 20260507191437 | 23 | 42 | 3.2 | 11.3 | 0.00 | 0.00 | 0.00 | 82 | 1014.9 |
| 20260507190934 | 23 | 278 | 3.2 | 11.3 | 0.00 | 0.00 | 0.00 | 83 | 1014.9 |
| 20260507190431 | 22 | 59 | 4.8 | 11.3 | 0.00 | 0.00 | 0.00 | 83 | 1014.9 |
| 20260507185928 | 22 | 35 | 3.2 | 8.0 | 0.00 | 0.00 | 0.00 | 84 | 1015.2 |
| 20260507185426 | 22 | 326 | 0.0 | 9.7 | 0.00 | 0.00 | 0.00 | 83 | 1015.2 |
| 20260507184923 | 22 | 272 | 3.2 | 9.7 | 0.00 | 0.00 | 0.00 | 83 | 1015.2 |
| 20260507184420 | 22 | 71 | 3.2 | 9.7 | 0.00 | 0.00 | 0.00 | 83 | 1015.2 |
| 20260507183846 | 22 | 66 | 4.8 | 9.7 | 0.00 | 0.00 | 0.00 | 82 | 1015.2 |
| 20260507183344 | 22 | 68 | 3.2 | 9.7 | 0.00 | 0.00 | 0.00 | 81 | 1015.2 |
| 20260507182840 | 22 | 20 | 3.2 | 6.4 | 0.00 | 0.00 | 0.00 | 82 | 1015.2 |
| 20260507182337 | 22 | 56 | 1.6 | 8.0 | 0.00 | 0.00 | 0.00 | 82 | 1015.6 |
| 20260507181835 | 22 | 325 | 1.6 | 11.3 | 0.00 | 0.00 | 0.00 | 82 | 1015.6 |
| 20260507181301 | 22 | 69 | 4.8 | 11.3 | 0.00 | 0.00 | 0.00 | 82 | 1015.6 |
| 20260507180742 | 22 | 257 | 3.2 | 11.3 | 0.00 | 0.00 | 0.00 | 83 | 1015.6 |
| 20260507180137 | 22 | 46 | 3.2 | 17.7 | 0.00 | 0.00 | 0.00 | 83 | 1015.6 |
| 20260507175634 | 21 | 52 | 3.2 | 17.7 | 0.00 | 0.00 | 0.00 | 86 | 1015.6 |
| 20260507175131 | 21 | 272 | 3.2 | 17.7 | 0.00 | 0.00 | 0.00 | 84 | 1015.6 |
| 20260507174628 | 21 | 64 | 4.8 | 16.1 | 0.00 | 0.00 | 0.00 | 85 | 1015.6 |
| 20260507174023 | 21 | 54 | 4.8 | 11.3 | 0.00 | 0.00 | 0.00 | 85 | 1015.9 |
| 20260507173501 | 21 | 272 | 3.2 | 11.3 | 0.00 | 0.00 | 0.00 | 86 | 1015.9 |
| 20260507172958 | 20 | 43 | 3.2 | 11.3 | 0.00 | 0.00 | 0.00 | 86 | 1015.9 |
| 20260507172424 | 20 | 35 | 4.8 | 11.3 | 0.00 | 0.00 | 0.00 | 85 | 1015.9 |
| 20260507171921 | 20 | 51 | 1.6 | 9.7 | 0.00 | 0.00 | 0.00 | 86 | 1015.9 |
| 20260507171400 | 20 | 71 | 3.2 | 9.7 | 0.00 | 0.00 | 0.00 | 86 | 1015.9 |
| 20260507170857 | 20 | 59 | 1.6 | 12.9 | 0.00 | 0.00 | 0.00 | 87 | 1015.9 |
| 20260507170353 | 20 | 64 | 4.8 | 12.9 | 0.00 | 0.00 | 0.00 | 86 | 1015.9 |
| 20260507165819 | 20 | 67 | 4.8 | 12.9 | 0.00 | 0.00 | 0.00 | 87 | 1015.9 |
| 20260507165316 | 19 | 20 | 4.8 | 12.9 | 0.00 | 0.00 | 0.00 | 87 | 1015.9 |
| 20260507164813 | 19 | 45 | 4.8 | 12.9 | 0.00 | 0.00 | 0.00 | 87 | 1015.9 |
| 20260507164310 | 19 | 10 | 1.6 | 11.3 | 0.00 | 0.00 | 0.00 | 87 | 1015.9 |
| 20260507163807 | 19 | 42 | 4.8 | 11.3 | 0.00 | 0.00 | 0.00 | 87 | 1015.9 |
| 20260507163304 | 19 | 38 | 3.2 | 11.3 | 0.00 | 0.00 | 0.00 | 87 | 1015.9 |
| 20260507162730 | 19 | 79 | 1.6 | 8.0 | 0.00 | 0.00 | 0.00 | 88 | 1016.3 |
| 20260507162227 | 19 | 354 | 1.6 | 8.0 | 0.00 | 0.00 | 0.00 | 88 | 1015.9 |
| 20260507161725 | 19 | 81 | 3.2 | 8.0 | 0.00 | 0.00 | 0.00 | 88 | 1015.9 |
| 20260507161222 | 18 | 24 | 3.2 | 8.0 | 0.00 | 0.00 | 0.00 | 88 | 1015.9 |
| 20260507160719 | 18 | 101 | 3.2 | 8.0 | 0.00 | 0.00 | 0.00 | 89 | 1015.6 |
| 20260507160216 | 18 | 45 | 3.2 | 12.9 | 0.00 | 0.00 | 0.00 | 88 | 1015.9 |
| 20260507155713 | 18 | 110 | 1.6 | 12.9 | 0.00 | 0.00 | 0.00 | 88 | 1015.9 |
| 20260507155139 | 18 | 56 | 3.2 | 12.9 | 0.00 | 0.00 | 0.00 | 88 | 1015.9 |
| 20260507154636 | 18 | 48 | 4.8 | 12.9 | 0.00 | 0.00 | 0.00 | 88 | 1015.9 |
| 20260507154133 | 18 | 55 | 4.8 | 12.9 | 0.00 | 0.00 | 0.00 | 89 | 1015.9 |
| 20260507153629 | 18 | 44 | 3.2 | 12.9 | 0.00 | 0.00 | 0.00 | 88 | 1015.9 |
| 20260507153055 | 18 | 56 | 3.2 | 11.3 | 0.00 | 0.00 | 0.00 | 88 | 1015.9 |
| 20260507152553 | 18 | 59 | 4.8 | 11.3 | 0.00 | 0.00 | 0.00 | 88 | 1015.9 |
| 20260507152049 | 18 | 56 | 4.8 | 11.3 | 0.00 | 0.00 | 0.00 | 88 | 1016.3 |
| 20260507151546 | 18 | 39 | 4.8 | 12.9 | 0.00 | 0.00 | 0.00 | 88 | 1015.9 |
| 20260507151043 | 18 | 41 | 1.6 | 12.9 | 0.00 | 0.00 | 0.00 | 89 | 1015.9 |
| 20260507150540 | 18 | 60 | 3.2 | 12.9 | 0.00 | 0.00 | 0.00 | 88 | 1015.9 |
| 20260507150037 | 18 | 50 | 3.2 | 14.5 | 0.00 | 0.00 | 0.00 | 89 | 1015.9 |
| 20260507145503 | 18 | 326 | 1.6 | 14.5 | 0.00 | 0.00 | 0.00 | 89 | 1015.9 |
| 20260507144959 | 18 | 321 | 3.2 | 14.5 | 0.00 | 0.00 | 0.00 | 89 | 1015.9 |
| 20260507144457 | 18 | 67 | 3.2 | 16.1 | 0.00 | 0.00 | 0.00 | 89 | 1015.9 |
| 20260507143923 | 18 | 32 | 4.8 | 16.1 | 0.00 | 0.00 | 0.00 | 89 | 1015.6 |
| 20260507143420 | 18 | 45 | 4.8 | 16.1 | 0.00 | 0.00 | 0.00 | 89 | 1015.6 |
| 20260507142814 | 18 | 38 | 8.0 | 16.1 | 0.00 | 0.00 | 0.00 | 89 | 1015.9 |
| 20260507142311 | 18 | 47 | 4.8 | 20.9 | 0.00 | 0.00 | 0.00 | 89 | 1015.6 |
| 20260507141808 | 18 | 60 | 3.2 | 20.9 | 0.00 | 0.00 | 0.00 | 89 | 1015.6 |
| 20260507141306 | 18 | 45 | 4.8 | 20.9 | 0.00 | 0.00 | 0.00 | 90 | 1015.6 |
| 20260507140701 | 18 | 53 | 6.4 | 20.9 | 0.00 | 0.00 | 0.00 | 89 | 1015.6 |
| 20260507140158 | 18 | 60 | 4.8 | 11.3 | 0.00 | 0.00 | 0.00 | 90 | 1015.6 |
| 20260507135654 | 18 | 25 | 3.2 | 11.3 | 0.00 | 0.00 | 0.00 | 90 | 1015.6 |
| 20260507135151 | 18 | 47 | 4.8 | 11.3 | 0.00 | 0.00 | 0.00 | 90 | 1015.9 |
| 20260507134634 | 18 | 54 | 3.2 | 11.3 | 0.00 | 0.00 | 0.00 | 90 | 1015.9 |
| 20260507134131 | 18 | 324 | 3.2 | 11.3 | 0.00 | 0.00 | 0.00 | 90 | 1015.9 |
| 20260507133628 | 18 | 56 | 3.2 | 12.9 | 0.00 | 0.00 | 0.00 | 90 | 1015.9 |
| 20260507133054 | 18 | 68 | 3.2 | 12.9 | 0.00 | 0.00 | 0.00 | 89 | 1015.9 |
| 20260507132551 | 18 | 66 | 3.2 | 9.7 | 0.00 | 0.00 | 0.00 | 89 | 1015.9 |
| 20260507132016 | 18 | 80 | 1.6 | 9.7 | 0.00 | 0.00 | 0.00 | 90 | 1015.9 |
| 20260507131514 | 18 | 264 | 3.2 | 9.7 | 0.00 | 0.00 | 0.00 | 89 | 1015.6 |
| 20260507131010 | 19 | 50 | 3.2 | 9.7 | 0.00 | 0.00 | 0.00 | 89 | 1015.6 |
| 20260507130507 | 19 | 228 | 3.2 | 6.4 | 0.00 | 0.00 | 0.00 | 89 | 1015.6 |
| 20260507130005 | 19 | 56 | 3.2 | 8.0 | 0.00 | 0.00 | 0.00 | 89 | 1015.6 |
| 20260507125501 | 19 | 284 | 1.6 | 8.0 | 0.00 | 0.00 | 0.00 | 89 | 1015.2 |
| 20260507124940 | 19 | 56 | 3.2 | 8.0 | 0.00 | 0.00 | 0.00 | 89 | 1015.2 |
| 20260507124436 | 19 | 10 | 1.6 | 8.0 | 0.00 | 0.00 | 0.00 | 89 | 1014.9 |
| 20260507123933 | 20 | 288 | 1.6 | 6.4 | 0.00 | 0.00 | 0.00 | 89 | 1014.9 |
| 20260507123430 | 20 | 344 | 3.2 | 6.4 | 0.00 | 0.00 | 0.00 | 89 | 1014.9 |
| 20260507122927 | 20 | 22 | 3.2 | 11.3 | 0.00 | 0.00 | 0.00 | 89 | 1014.9 |
| 20260507122424 | 20 | 99 | 1.6 | 11.3 | 0.00 | 0.00 | 0.00 | 89 | 1014.6 |
| 20260507121921 | 20 | 25 | 1.6 | 11.3 | 0.00 | 0.00 | 0.00 | 89 | 1014.6 |
| 20260507121347 | 20 | 33 | 3.2 | 11.3 | 0.00 | 0.00 | 0.00 | 89 | 1014.6 |
| 20260507120844 | 20 | 35 | 3.2 | 8.0 | 0.00 | 0.00 | 0.00 | 89 | 1014.6 |
| 20260507120322 | 20 | 60 | 3.2 | 8.0 | 0.00 | 0.00 | 0.00 | 90 | 1014.2 |
| 20260507115819 | 20 | 58 | 1.6 | 11.3 | 0.00 | 0.00 | 0.00 | 90 | 1014.2 |
| 20260507115244 | 20 | 65 | 1.6 | 11.3 | 0.00 | 0.00 | 0.00 | 90 | 1014.2 |
| 20260507114741 | 20 | 53 | 1.6 | 11.3 | 0.00 | 0.00 | 0.00 | 89 | 1014.2 |
| 20260507114238 | 20 | 48 | 3.2 | 11.3 | 0.00 | 0.00 | 0.00 | 89 | 1013.9 |
| 20260507113704 | 20 | 37 | 3.2 | 8.0 | 0.00 | 0.00 | 0.00 | 90 | 1013.9 |
| 20260507113201 | 20 | 58 | 3.2 | 8.0 | 0.00 | 0.00 | 0.00 | 90 | 1013.9 |
| 20260507112658 | 20 | 78 | 1.6 | 11.3 | 0.00 | 0.00 | 0.00 | 90 | 1013.9 |
| 20260507112155 | 20 | 33 | 1.6 | 12.9 | 0.00 | 0.00 | 0.00 | 90 | 1013.5 |
| 20260507111653 | 20 | 51 | 3.2 | 12.9 | 0.00 | 0.00 | 0.00 | 90 | 1013.5 |
| 20260507111150 | 20 | 36 | 3.2 | 12.9 | 0.00 | 0.00 | 0.00 | 90 | 1013.5 |
| 20260507110647 | 20 | 27 | 3.2 | 12.9 | 0.00 | 0.00 | 0.00 | 90 | 1013.5 |
| 20260507110145 | 20 | 28 | 3.2 | 9.7 | 0.00 | 0.00 | 0.00 | 90 | 1013.9 |
| 20260507105642 | 20 | 21 | 1.6 | 6.4 | 0.00 | 0.00 | 0.00 | 90 | 1013.5 |
| 20260507105108 | 20 | 26 | 1.6 | 6.4 | 0.00 | 0.00 | 0.00 | 90 | 1013.5 |
| 20260507104605 | 20 | 44 | 1.6 | 9.7 | 0.00 | 0.00 | 0.00 | 90 | 1013.5 |
| 20260507104030 | 20 | 43 | 3.2 | 9.7 | 0.00 | 0.00 | 0.00 | 90 | 1013.5 |
| 20260507103456 | 20 | 62 | 3.2 | 9.7 | 0.00 | 0.00 | 0.00 | 90 | 1013.5 |
| 20260507102953 | 20 | 49 | 4.8 | 9.7 | 0.00 | 0.00 | 0.00 | 90 | 1013.5 |
| 20260507102449 | 20 | 22 | 3.2 | 9.7 | 0.00 | 0.00 | 0.00 | 90 | 1013.2 |
| 20260507101946 | 20 | 23 | 4.8 | 9.7 | 0.00 | 0.00 | 0.00 | 90 | 1013.2 |
| 20260507101442 | 20 | 39 | 1.6 | 9.7 | 0.00 | 0.00 | 0.00 | 90 | 1013.2 |
| 20260507100939 | 20 | 32 | 3.2 | 11.3 | 0.00 | 0.00 | 0.00 | 90 | 1012.9 |
| 20260507100346 | 20 | 339 | 1.6 | 11.3 | 0.00 | 0.00 | 0.00 | 90 | 1013.2 |
| 20260507095843 | 20 | 24 | 1.6 | 11.3 | 0.00 | 0.00 | 0.00 | 90 | 1012.9 |
| 20260507095340 | 21 | 254 | 1.6 | 11.3 | 0.00 | 0.00 | 0.00 | 90 | 1012.9 |
| 20260507094837 | 21 | 34 | 3.2 | 12.9 | 0.00 | 0.00 | 0.00 | 90 | 1012.9 |
| 20260507094335 | 21 | 65 | 3.2 | 12.9 | 0.00 | 0.00 | 0.00 | 90 | 1012.9 |
| 20260507093831 | 21 | 63 | 4.8 | 12.9 | 0.00 | 0.00 | 0.00 | 90 | 1012.9 |
| 20260507093328 | 21 | 38 | 3.2 | 12.9 | 0.00 | 0.00 | 0.00 | 90 | 1012.9 |
| 20260507092826 | 21 | 44 | 4.8 | 11.3 | 0.00 | 0.00 | 0.00 | 90 | 1012.9 |
| 20260507092220 | 21 | 96 | 3.2 | 9.7 | 0.00 | 0.00 | 0.00 | 90 | 1012.9 |
| 20260507091717 | 21 | 49 | 3.2 | 9.7 | 0.00 | 0.00 | 0.00 | 90 | 1013.2 |
| 20260507091214 | 21 | 67 | 1.6 | 12.9 | 0.00 | 0.00 | 0.00 | 90 | 1012.9 |
| 20260507090616 | 21 | 87 | 4.8 | 14.5 | 0.00 | 0.00 | 0.00 | 90 | 1012.9 |
| 20260507090023 | 21 | 78 | 1.6 | 14.5 | 0.00 | 0.00 | 0.00 | 90 | 1012.9 |
| 20260507085520 | 21 | 28 | 4.8 | 14.5 | 0.00 | 0.00 | 0.00 | 90 | 1012.5 |
| 20260507085017 | 21 | 51 | 3.2 | 12.9 | 0.00 | 0.00 | 0.00 | 90 | 1012.5 |
| 20260507084514 | 21 | 50 | 3.2 | 12.9 | 0.00 | 0.00 | 0.00 | 90 | 1012.5 |
| 20260507083940 | 21 | 280 | 1.6 | 12.9 | 0.00 | 0.00 | 0.00 | 90 | 1012.5 |
| 20260507083436 | 21 | 149 | 1.6 | 12.9 | 0.00 | 0.00 | 0.00 | 90 | 1012.2 |
| 20260507082932 | 21 | 87 | 3.2 | 12.9 | 0.00 | 0.00 | 0.00 | 90 | 1012.5 |
| 20260507082430 | 21 | 49 | 3.2 | 9.7 | 0.00 | 0.00 | 0.00 | 90 | 1012.5 |
| 20260507081927 | 21 | 262 | 1.6 | 8.0 | 0.00 | 0.00 | 0.00 | 90 | 1012.5 |
| 20260507081424 | 22 | 64 | 3.2 | 8.0 | 0.00 | 0.00 | 0.00 | 90 | 1012.5 |
| 20260507080903 | 22 | 5 | 1.6 | 8.0 | 0.00 | 0.00 | 0.00 | 90 | 1012.5 |
| 20260507080400 | 22 | 70 | 1.6 | 11.3 | 0.00 | 0.00 | 0.00 | 90 | 1012.5 |
| 20260507075839 | 22 | 52 | 1.6 | 11.3 | 0.00 | 0.00 | 0.00 | 90 | 1012.5 |
| 20260507075306 | 22 | 56 | 1.6 | 11.3 | 0.00 | 0.00 | 0.00 | 90 | 1012.5 |
| 20260507074801 | 22 | 47 | 3.2 | 6.4 | 0.00 | 0.00 | 0.00 | 90 | 1012.5 |
| 20260507074258 | 22 | 66 | 1.6 | 8.0 | 0.00 | 0.00 | 0.00 | 90 | 1012.5 |
| 20260507073755 | 22 | 313 | 3.2 | 8.0 | 0.00 | 0.00 | 0.00 | 90 | 1012.5 |
| 20260507073252 | 22 | 161 | 1.6 | 6.4 | 0.00 | 0.00 | 0.00 | 90 | 1012.9 |
| 20260507072749 | 22 | 304 | 3.2 | 6.4 | 0.00 | 0.00 | 0.00 | 89 | 1012.5 |
| 20260507072246 | 22 | 82 | 1.6 | 17.7 | 0.00 | 0.00 | 0.00 | 89 | 1012.5 |
| 20260507071743 | 22 | 58 | 3.2 | 17.7 | 0.00 | 0.00 | 0.00 | 90 | 1012.5 |
| 20260507071209 | 22 | 257 | 1.6 | 17.7 | 0.00 | 0.00 | 0.00 | 89 | 1012.9 |
| 20260507070706 | 22 | 343 | 1.6 | 17.7 | 0.00 | 0.00 | 0.00 | 89 | 1012.5 |
| 20260507070132 | 22 | 208 | 4.8 | 8.0 | 0.00 | 0.00 | 0.00 | 89 | 1012.5 |
| 20260507065602 | 22 | 43 | 1.6 | 8.0 | 0.00 | 0.00 | 0.00 | 89 | 1012.5 |
| 20260507065058 | 22 | 242 | 1.6 | 8.0 | 0.00 | 0.00 | 0.00 | 90 | 1012.5 |
| 20260507064556 | 22 | 42 | 3.2 | 8.0 | 0.00 | 0.00 | 0.00 | 90 | 1012.5 |
| 20260507064052 | 22 | 1 | 3.2 | 8.0 | 0.00 | 0.00 | 0.00 | 90 | 1012.5 |
| 20260507063515 | 22 | 74 | 1.6 | 4.8 | 0.00 | 0.00 | 0.00 | 90 | 1012.5 |
| 20260507063012 | 23 | 50 | 1.6 | 6.4 | 0.00 | 0.00 | 0.00 | 90 | 1012.5 |
| 20260507062407 | 23 | 273 | 1.6 | 8.0 | 0.00 | 0.00 | 0.00 | 90 | 1012.5 |
| 20260507061904 | 23 | 286 | 1.6 | 8.0 | 0.00 | 0.00 | 0.00 | 90 | 1012.5 |
| 20260507061400 | 23 | 68 | 3.2 | 8.0 | 0.00 | 0.00 | 0.00 | 90 | 1012.5 |
| 20260507060857 | 23 | 52 | 3.2 | 8.0 | 0.00 | 0.00 | 0.00 | 90 | 1012.5 |
| 20260507060354 | 23 | 99 | 1.6 | 8.0 | 0.00 | 0.00 | 0.00 | 90 | 1012.2 |
| 20260507055851 | 23 | 52 | 3.2 | 8.0 | 0.00 | 0.00 | 0.00 | 90 | 1012.2 |
| 20260507055245 | 23 | 120 | 1.6 | 6.4 | 0.00 | 0.00 | 0.00 | 90 | 1012.2 |
| 20260507054742 | 23 | 53 | 1.6 | 6.4 | 0.00 | 0.00 | 0.00 | 90 | 1012.2 |
| 20260507054238 | 23 | 57 | 1.6 | 4.8 | 0.00 | 0.00 | 0.00 | 90 | 1012.2 |
| 20260507053704 | 23 | 76 | 1.6 | 8.0 | 0.00 | 0.00 | 0.00 | 90 | 1012.5 |
| 20260507053201 | 23 | 258 | 3.2 | 8.0 | 0.00 | 0.00 | 0.00 | 90 | 1012.5 |
| 20260507052658 | 23 | 55 | 1.6 | 8.0 | 0.00 | 0.00 | 0.00 | 90 | 1012.5 |
| 20260507052123 | 23 | 25 | 1.6 | 8.0 | 0.00 | 0.00 | 0.00 | 91 | 1012.2 |
| 20260507051621 | 23 | 23 | 1.6 | 8.0 | 0.00 | 0.00 | 0.00 | 91 | 1012.2 |
| 20260507051118 | 23 | 73 | 3.2 | 8.0 | 0.00 | 0.00 | 0.00 | 91 | 1012.2 |
| 20260507050543 | 23 | 238 | 1.6 | 8.0 | 0.00 | 0.00 | 0.00 | 91 | 1012.5 |
| 20260507050020 | 23 | 298 | 1.6 | 14.5 | 0.00 | 0.00 | 0.00 | 91 | 1012.2 |
| 20260507045517 | 23 | 255 | 1.6 | 14.5 | 0.00 | 0.00 | 0.00 | 91 | 1012.2 |
| 20260507045014 | 23 | 359 | 3.2 | 14.5 | 0.00 | 0.00 | 0.00 | 91 | 1012.2 |
| 20260507044511 | 23 | 290 | 1.6 | 14.5 | 0.00 | 0.00 | 0.00 | 91 | 1012.2 |
| 20260507044009 | 24 | 240 | 3.2 | 12.9 | 0.00 | 0.00 | 0.00 | 91 | 1012.5 |
| 20260507043505 | 24 | 261 | 3.2 | 12.9 | 0.00 | 0.00 | 0.00 | 91 | 1012.5 |
| 20260507043002 | 25 | 278 | 3.2 | 12.9 | 0.00 | 0.00 | 0.00 | 92 | 1012.5 |
| 20260507042428 | 25 | 245 | 3.2 | 12.9 | 0.00 | 0.00 | 0.00 | 92 | 1012.2 |
| 20260507041925 | 25 | 286 | 3.2 | 4.8 | 0.00 | 0.00 | 0.00 | 93 | 1012.2 |
| 20260507041351 | 25 | 310 | 0.0 | 0.0 | 0.00 | 0.00 | 0.00 | 93 | 1011.9 |
| 20260507040848 | 25 | 310 | 0.0 | 0.0 | 0.00 | 0.00 | 0.00 | 93 | 1011.9 |
| 20260507040252 | 25 | 310 | 0.0 | 0.0 | 0.00 | 0.00 | 0.00 | 93 | 1011.9 |
| 20260507035716 | 25 | 310 | 0.0 | 0.0 | 0.00 | 0.00 | 0.00 | 93 | 1011.9 |
| 20260507035214 | 25 | 310 | 0.0 | 0.0 | 0.00 | 0.00 | 0.00 | 93 | 1011.9 |
| 20260507034711 | 25 | 310 | 0.0 | 0.0 | 0.00 | 0.00 | 0.00 | 93 | 1011.9 |
| 20260507034208 | 25 | 310 | 0.0 | 0.0 | 0.00 | 0.00 | 0.00 | 93 | 1011.9 |
| 20260507033705 | 25 | 310 | 0.0 | 0.0 | 0.00 | 0.00 | 0.00 | 93 | 1011.5 |
| 20260507033131 | 25 | 311 | 0.0 | 0.0 | 0.00 | 0.00 | 0.00 | 93 | 1011.5 |
| 20260507032627 | 25 | 310 | 0.0 | 0.0 | 0.00 | 0.00 | 0.00 | 93 | 1011.5 |
| 20260507032053 | 25 | 311 | 0.0 | 0.0 | 0.00 | 0.00 | 0.00 | 93 | 1011.5 |
| 20260507031550 | 25 | 311 | 0.0 | 0.0 | 0.00 | 0.00 | 0.00 | 93 | 1011.2 |
| 20260507031016 | 25 | 310 | 0.0 | 1.6 | 0.00 | 0.00 | 0.00 | 93 | 1011.2 |
| 20260507030513 | 25 | 311 | 0.0 | 1.6 | 0.00 | 0.00 | 0.00 | 93 | 1010.8 |
| 20260507030010 | 25 | 310 | 0.0 | 1.6 | 0.00 | 0.00 | 0.00 | 93 | 1010.8 |
| 20260507025507 | 25 | 311 | 0.0 | 1.6 | 0.00 | 0.00 | 0.00 | 93 | 1010.8 |
| 20260507025003 | 25 | 310 | 0.0 | 0.0 | 0.00 | 0.00 | 0.00 | 93 | 1010.8 |
| 20260507024429 | 25 | 310 | 0.0 | 0.0 | 0.00 | 0.00 | 0.00 | 93 | 1010.8 |
| 20260507023926 | 25 | 310 | 0.0 | 0.0 | 0.00 | 0.00 | 0.00 | 93 | 1010.5 |
| 20260507023352 | 25 | 310 | 0.0 | 0.0 | 0.00 | 0.00 | 0.00 | 93 | 1010.8 |
| 20260507022848 | 25 | 311 | 0.0 | 0.0 | 0.00 | 0.00 | 0.00 | 93 | 1010.5 |
| 20260507022345 | 25 | 311 | 0.0 | 1.6 | 0.00 | 0.00 | 0.00 | 92 | 1010.5 |
| 20260507021843 | 25 | 311 | 0.0 | 1.6 | 0.00 | 0.00 | 0.00 | 92 | 1010.5 |
| 20260507021250 | 25 | 311 | 0.0 | 1.6 | 0.00 | 0.00 | 0.00 | 92 | 1010.5 |
| 20260507020747 | 25 | 267 | 0.0 | 0.0 | 0.00 | 0.00 | 0.00 | 92 | 1010.5 |
| 20260507020212 | 25 | 267 | 0.0 | 0.0 | 0.00 | 0.00 | 0.00 | 92 | 1010.2 |
| 20260507015650 | 25 | 267 | 0.0 | 0.0 | 0.00 | 0.00 | 0.00 | 92 | 1010.2 |
| 20260507015146 | 25 | 267 | 0.0 | 0.0 | 0.00 | 0.00 | 0.00 | 92 | 1010.2 |
| 20260507014629 | 26 | 267 | 0.0 | 1.6 | 0.00 | 0.00 | 0.00 | 92 | 1009.8 |
| 20260507014126 | 26 | 267 | 0.0 | 1.6 | 0.00 | 0.00 | 0.00 | 92 | 1009.8 |
| 20260507013552 | 26 | 267 | 0.0 | 1.6 | 0.00 | 0.00 | 0.00 | 92 | 1009.8 |
| 20260507013018 | 26 | 267 | 0.0 | 0.0 | 0.00 | 0.00 | 0.00 | 91 | 1009.8 |
| 20260507012459 | 26 | 267 | 0.0 | 0.0 | 0.00 | 0.00 | 0.00 | 91 | 1009.8 |
| 20260507011956 | 26 | 267 | 0.0 | 0.0 | 0.00 | 0.00 | 0.00 | 91 | 1009.8 |
| 20260507011419 | 26 | 267 | 0.0 | 0.0 | 0.00 | 0.00 | 0.00 | 91 | 1009.5 |
| 20260507010915 | 26 | 267 | 0.0 | 0.0 | 0.00 | 0.00 | 0.00 | 91 | 1009.5 |
| 20260507010323 | 26 | 268 | 0.0 | 0.0 | 0.00 | 0.00 | 0.00 | 91 | 1009.5 |
| 20260507005820 | 26 | 268 | 0.0 | 0.0 | 0.00 | 0.00 | 0.00 | 91 | 1009.5 |
| 20260507005317 | 26 | 268 | 0.0 | 0.0 | 0.00 | 0.00 | 0.00 | 91 | 1009.5 |
| 20260507004814 | 26 | 268 | 0.0 | 0.0 | 0.00 | 0.00 | 0.00 | 91 | 1009.5 |
| 20260507004310 | 26 | 268 | 0.0 | 0.0 | 0.00 | 0.00 | 0.00 | 91 | 1009.5 |
| 20260507003807 | 26 | 268 | 0.0 | 0.0 | 0.00 | 0.00 | 0.00 | 91 | 1009.5 |
| 20260507003303 | 26 | 268 | 0.0 | 0.0 | 0.00 | 0.00 | 0.00 | 90 | 1009.5 |
| 20260507002801 | 26 | 268 | 0.0 | 0.0 | 0.00 | 0.00 | 0.00 | 90 | 1009.1 |
| 20260507002258 | 26 | 268 | 0.0 | 0.0 | 0.00 | 0.00 | 0.00 | 90 | 1009.1 |
| 20260507001755 | 27 | 268 | 0.0 | 0.0 | 0.00 | 0.00 | 0.00 | 90 | 1009.1 |
| 20260507001221 | 27 | 268 | 0.0 | 0.0 | 0.00 | 0.00 | 0.00 | 90 | 1009.1 |
| 20260507000717 | 27 | 268 | 0.0 | 0.0 | 0.00 | 0.00 | 0.00 | 90 | 1009.1 |
| 20260507000143 | 27 | 268 | 0.0 | 0.0 | 0.00 | 0.00 | 0.00 | 90 | 1009.1 |
| 20260506235639 | 27 | 268 | 0.0 | 0.0 | 0.00 | 0.00 | 0.00 | 90 | 1009.1 |
| 20260506235103 | 27 | 268 | 0.0 | 0.0 | 0.00 | 0.00 | 0.00 | 90 | 1009.1 |
| 20260506234600 | 27 | 268 | 0.0 | 0.0 | 0.00 | 0.00 | 0.00 | 90 | 1008.8 |
| 20260506234057 | 27 | 268 | 0.0 | 0.0 | 0.00 | 0.00 | 0.00 | 89 | 1009.1 |
| 20260506233553 | 27 | 268 | 0.0 | 1.6 | 0.00 | 0.00 | 0.00 | 89 | 1009.1 |
| 20260506233050 | 27 | 268 | 0.0 | 1.6 | 0.00 | 0.00 | 0.00 | 89 | 1009.1 |
| 20260506232547 | 27 | 268 | 0.0 | 1.6 | 0.00 | 0.00 | 0.00 | 89 | 1009.1 |
| 20260506232044 | 27 | 268 | 0.0 | 1.6 | 0.00 | 0.00 | 0.00 | 89 | 1009.1 |
| 20260506231522 | 27 | 269 | 0.0 | 3.2 | 0.00 | 0.00 | 0.00 | 89 | 1008.8 |
| 20260506231019 | 27 | 268 | 0.0 | 3.2 | 0.00 | 0.00 | 0.00 | 89 | 1008.8 |
| 20260506230500 | 27 | 268 | 1.6 | 3.2 | 0.00 | 0.00 | 0.00 | 89 | 1008.8 |
| 20260506225957 | 27 | 275 | 1.6 | 3.2 | 0.00 | 0.00 | 0.00 | 89 | 1008.8 |
| 20260506225439 | 27 | 276 | 0.0 | 3.2 | 0.00 | 0.00 | 0.00 | 89 | 1008.5 |
| 20260506224935 | 27 | 252 | 0.0 | 1.6 | 0.00 | 0.00 | 0.00 | 89 | 1008.8 |
| 20260506224432 | 27 | 252 | 1.6 | 4.8 | 0.00 | 0.00 | 0.00 | 89 | 1008.5 |
| 20260506223910 | 27 | 230 | 0.0 | 4.8 | 0.00 | 0.00 | 0.00 | 89 | 1008.8 |
| 20260506223406 | 27 | 244 | 0.0 | 4.8 | 0.00 | 0.00 | 0.00 | 89 | 1008.8 |
| 20260506222903 | 27 | 162 | 1.6 | 1.6 | 0.00 | 0.00 | 0.00 | 89 | 1008.8 |
| 20260506222400 | 27 | 162 | 0.0 | 1.6 | 0.00 | 0.00 | 0.00 | 89 | 1008.8 |
| 20260506221856 | 27 | 162 | 0.0 | 1.6 | 0.00 | 0.00 | 0.00 | 89 | 1008.8 |
| 20260506221353 | 27 | 162 | 0.0 | 3.2 | 0.00 | 0.00 | 0.00 | 89 | 1008.8 |
| 20260506220818 | 27 | 162 | 0.0 | 3.2 | 0.00 | 0.00 | 0.00 | 89 | 1008.8 |
| 20260506220315 | 27 | 162 | 0.0 | 4.8 | 0.00 | 0.00 | 0.00 | 88 | 1008.8 |
| 20260506215812 | 27 | 166 | 1.6 | 4.8 | 0.00 | 0.00 | 0.00 | 88 | 1008.8 |
| 20260506215309 | 28 | 317 | 1.6 | 4.8 | 0.00 | 0.00 | 0.00 | 88 | 1008.8 |
| 20260506214805 | 28 | 317 | 1.6 | 4.8 | 0.00 | 0.00 | 0.00 | 87 | 1008.8 |
| 20260506214301 | 28 | 317 | 1.6 | 3.2 | 0.00 | 0.00 | 0.00 | 87 | 1008.8 |
| 20260506213727 | 28 | 319 | 1.6 | 3.2 | 0.00 | 0.00 | 0.00 | 87 | 1008.8 |
| 20260506213224 | 28 | 322 | 1.6 | 3.2 | 0.00 | 0.00 | 0.00 | 87 | 1008.8 |
| 20260506212721 | 29 | 329 | 1.6 | 4.8 | 0.00 | 0.00 | 0.00 | 86 | 1008.8 |
| 20260506212147 | 29 | 5 | 1.6 | 4.8 | 0.00 | 0.00 | 0.00 | 86 | 1008.8 |
| 20260506211451 | 30 | 7 | 1.6 | 4.8 | 0.00 | 0.00 | 0.00 | 86 | 1008.8 |
| 20260506210948 | 29 | 314 | 1.6 | 4.8 | 0.00 | 0.00 | 0.00 | 87 | 1008.8 |
| 20260506210445 | 29 | 319 | 1.6 | 4.8 | 0.00 | 0.00 | 0.00 | 87 | 1008.8 |
| 20260506205942 | 29 | 126 | 1.6 | 3.2 | 0.00 | 0.00 | 0.00 | 87 | 1008.8 |
| 20260506205439 | 28 | 109 | 1.6 | 3.2 | 0.00 | 0.00 | 0.00 | 88 | 1008.8 |
| 20260506204936 | 28 | 330 | 1.6 | 3.2 | 0.00 | 0.00 | 0.00 | 88 | 1008.8 |
| 20260506204402 | 28 | 58 | 1.6 | 3.2 | 0.00 | 0.00 | 0.00 | 88 | 1009.1 |
| 20260506203859 | 28 | 64 | 1.6 | 4.8 | 0.00 | 0.00 | 0.00 | 87 | 1009.1 |
| 20260506203356 | 28 | 85 | 1.6 | 4.8 | 0.00 | 0.00 | 0.00 | 88 | 1009.1 |
| 20260506202853 | 28 | 85 | 1.6 | 4.8 | 0.00 | 0.00 | 0.00 | 88 | 1009.1 |
| 20260506202318 | 28 | 56 | 3.2 | 4.8 | 0.00 | 0.00 | 0.00 | 88 | 1009.1 |
| 20260506201815 | 28 | 123 | 1.6 | 3.2 | 0.00 | 0.00 | 0.00 | 88 | 1009.5 |
| 20260506201312 | 28 | 290 | 1.6 | 3.2 | 0.00 | 0.00 | 0.00 | 89 | 1009.5 |